Weather History for Highgate, VT

Change the Weather History Date:

Sunday, November 3, 2013

  Actual Average (KPBG) Record (KPBG)
Temperature  
Mean Temperature 33 °F 41 °F  
Max Temperature 41 °F 51 °F 74 °F (1990)
Min Temperature 25 °F 32 °F 21 °F (1988)
Degree Days  
Heating Degree Days 32 24  
Month to date heating degree days 70  
Since 1 July heating degree days 853  
Cooling Degree Days 0 0  
Month to date cooling degree days 0  
Year to date cooling degree days 346  
Moisture  
Dew Point 19 °F    
Average Humidity 57    
Maximum Humidity 86    
Minimum Humidity 34    
Precipitation  
Precipitation 0.00 in - 1.53 in (1992)
Month to date precipitation  
Year to date precipitation  
Sea Level Pressure  
Sea Level Pressure 30.24 in    
Wind  
Wind Speed 8 mph (North)    
Max Wind Speed 14 mph    
Max Gust Speed 21 mph    
Visibility 10 miles    
Events      
T = Trace of Precipitation, MM = Missing Value Source: NWS Daily Summary

Daily Weather History Graph

Daily Weather History Graph

Search for Another Location

Airport:

Trip Planner

Search our weather history database for the weather conditions in past years. The results will help you decide how hot, cold, wet, or windy it might be!

Date:

Astronomy

Nov. 03, 2013 Rise Set
Actual Time 6:33 AM EST 4:37 PM EST
Civil Twilight 6:02 AM EST 5:08 PM EST
Nautical Twilight 5:28 AM EST 5:43 PM EST
Astronomical Twilight 4:54 AM EST 6:17 PM EST
Moon 6:35 AM EST (11/3) 4:49 PM EST (11/3)
Length of Visible Light 11h 05m
Length of Day
10h 03m
New Moon, 0% of the Moon is Illuminated
Nov 3
New Moon
Nov 10
First Quarter
Nov 17
Full
Nov 25
Last Quarter
Dec 2
New

Hourly Weather History & Observations

Time (EST) Temp. Windchill Dew Point Humidity Pressure Visibility Wind Dir Wind Speed Gust Speed Precip Events Conditions
12:15 AM 36.9 °F 29.1 °F 25.7 °F 64% 29.95 in 10.0 mi NNE 11.5 mph 18.4 mph N/A   Overcast
12:35 AM 35.6 °F 28.6 °F 22.5 °F 59% 29.96 in 10.0 mi North 9.2 mph 20.7 mph N/A   Overcast
12:55 AM 35.6 °F 29.2 °F 23.5 °F 62% 29.97 in 10.0 mi North 8.1 mph 16.1 mph N/A   Overcast
1:15 AM 35.6 °F 27.5 °F 22.3 °F 58% 29.98 in 10.0 mi North 11.5 mph 19.6 mph N/A   Overcast
1:35 AM 35.6 °F 26.6 °F 22.5 °F 59% 30.00 in 10.0 mi North 13.8 mph 17.3 mph N/A   Overcast
1:55 AM 35.6 °F 27.5 °F 21.4 °F 56% 30.00 in 10.0 mi North 11.5 mph 20.7 mph N/A   Overcast
1:15 AM 35.6 °F 27.1 °F 20.8 °F 55% 30.01 in 10.0 mi North 12.7 mph 18.4 mph N/A   Overcast
1:35 AM 35.6 °F 28.6 °F 21.2 °F 56% 30.02 in 10.0 mi North 9.2 mph 18.4 mph N/A   Overcast
1:55 AM 35.4 °F 26.8 °F 21.6 °F 57% 30.03 in 10.0 mi North 12.7 mph - N/A   Mostly Cloudy
2:15 AM 33.1 °F 26.1 °F 20.1 °F 59% 30.04 in 10.0 mi North 8.1 mph - N/A   Mostly Cloudy
2:35 AM 33.1 °F 26.9 °F 20.8 °F 61% 30.04 in 10.0 mi North 6.9 mph - N/A   Scattered Clouds
2:55 AM 33.1 °F 27.7 °F 21.2 °F 62% 30.05 in 10.0 mi North 5.8 mph - N/A   Clear
3:15 AM 33.1 °F 28.7 °F 21.7 °F 63% 30.06 in 10.0 mi North 4.6 mph - N/A   Clear
3:35 AM 32.0 °F 26.4 °F 20.8 °F 63% 30.07 in 10.0 mi North 5.8 mph - N/A   Clear
3:55 AM 32.0 °F 26.4 °F 21.2 °F 64% 30.08 in 10.0 mi North 5.8 mph - N/A   Clear
4:15 AM 32.0 °F 26.4 °F 21.2 °F 64% 30.09 in 10.0 mi North 5.8 mph - N/A   Clear
4:35 AM 32.0 °F 23.6 °F 21.2 °F 64% 30.10 in 10.0 mi North 10.4 mph - N/A   Clear
4:55 AM 31.8 °F 25.4 °F 21.2 °F 65% 30.11 in 10.0 mi North 6.9 mph - N/A   Clear
5:15 AM 32.0 °F 27.5 °F 21.2 °F 64% 30.13 in 10.0 mi North 4.6 mph - N/A   Clear
5:35 AM 30.9 °F 25.2 °F 20.5 °F 65% 30.14 in 10.0 mi North 5.8 mph - N/A   Clear
5:55 AM 30.9 °F 25.2 °F 20.8 °F 66% 30.15 in 10.0 mi North 5.8 mph - N/A   Clear
6:15 AM 30.9 °F 25.2 °F 21.0 °F 67% 30.16 in 10.0 mi North 5.8 mph - N/A   Clear
6:35 AM 30.9 °F 26.2 °F 21.2 °F 67% 30.17 in 10.0 mi North 4.6 mph - N/A   Clear
6:55 AM 30.9 °F 25.2 °F 21.2 °F 67% 30.18 in 10.0 mi North 5.8 mph - N/A   Clear
7:15 AM 30.9 °F 24.3 °F 21.0 °F 67% 30.20 in 10.0 mi North 6.9 mph - N/A   Clear
7:35 AM 30.9 °F 25.2 °F 20.8 °F 66% 30.22 in 10.0 mi North 5.8 mph - N/A   Clear
7:55 AM 31.1 °F 23.7 °F 21.0 °F 66% 30.22 in 10.0 mi North 8.1 mph - N/A   Clear
8:15 AM 33.1 °F 26.1 °F 21.4 °F 62% 30.23 in 10.0 mi North 8.1 mph - N/A   Clear
8:35 AM 35.2 °F 28.8 °F 22.8 °F 61% 30.24 in 10.0 mi NNE 8.1 mph - N/A   Clear
8:55 AM 35.6 °F 28.0 °F 21.7 °F 57% 30.25 in 10.0 mi North 10.4 mph - N/A   Clear
9:15 AM 35.6 °F 28.0 °F 21.6 °F 57% 30.25 in 10.0 mi North 10.4 mph 16.1 mph N/A   Clear
9:35 AM 35.6 °F 27.5 °F 21.0 °F 55% 30.25 in 10.0 mi North 11.5 mph - N/A   Clear
9:55 AM 35.6 °F 28.0 °F 20.1 °F 53% 30.26 in 10.0 mi NNW 10.4 mph 16.1 mph N/A   Clear
10:15 AM 35.6 °F 28.0 °F 19.2 °F 51% 30.26 in 10.0 mi North 10.4 mph - N/A   Clear
10:35 AM 37.0 °F 29.3 °F 19.6 °F 49% 30.27 in 10.0 mi North 11.5 mph 17.3 mph N/A   Clear
10:55 AM 38.3 °F 31.9 °F 19.4 °F 47% 30.27 in 10.0 mi North 9.2 mph 18.4 mph N/A   Clear
11:15 AM 38.3 °F 30.5 °F 16.2 °F 41% 30.28 in 10.0 mi North 12.7 mph 18.4 mph N/A   Clear
11:35 AM 38.3 °F 30.1 °F 15.4 °F 39% 30.28 in 10.0 mi North 13.8 mph 19.6 mph N/A   Clear
11:55 AM 38.3 °F 30.5 °F 16.9 °F 42% 30.27 in 10.0 mi North 12.7 mph 18.4 mph N/A   Clear
12:15 PM 38.3 °F 31.9 °F 15.6 °F 40% 30.27 in 10.0 mi North 9.2 mph - N/A   Clear
12:35 PM 38.3 °F 30.1 °F 14.4 °F 38% 30.26 in 10.0 mi North 13.8 mph 20.7 mph N/A   Clear
12:55 PM 40.8 °F 35.0 °F 16.2 °F 37% 30.27 in 10.0 mi NNW 9.2 mph 16.1 mph N/A   Clear
1:15 PM 41.0 °F 35.2 °F 15.3 °F 35% 30.28 in 10.0 mi North 9.2 mph 18.4 mph N/A   Clear
1:35 PM 41.0 °F 34.7 °F 15.3 °F 35% 30.28 in 10.0 mi North 10.4 mph - N/A   Clear
1:55 PM 41.0 °F 34.3 °F 15.3 °F 35% 30.30 in 10.0 mi North 11.5 mph 17.3 mph N/A   Clear
2:15 PM 41.0 °F 34.7 °F 14.7 °F 34% 30.30 in 10.0 mi North 10.4 mph 19.6 mph N/A   Clear
2:35 PM 41.0 °F 34.7 °F 14.7 °F 34% 30.31 in 10.0 mi North 10.4 mph - N/A   Clear
2:55 PM 41.0 °F 36.4 °F 14.5 °F 34% 30.32 in 10.0 mi NNW 6.9 mph - N/A   Scattered Clouds
3:15 PM 40.6 °F 36.0 °F 15.4 °F 36% 30.33 in 10.0 mi North 6.9 mph - N/A   Scattered Clouds
3:35 PM 39.2 °F 33.6 °F 13.5 °F 35% 30.33 in 10.0 mi North 8.1 mph - N/A   Clear
3:55 PM 38.3 °F 33.2 °F 13.5 °F 36% 30.34 in 10.0 mi North 6.9 mph 16.1 mph N/A   Clear
4:15 PM 38.3 °F 33.9 °F 14.4 °F 38% 30.35 in 10.0 mi North 5.8 mph - N/A   Clear
4:35 PM 36.1 °F 29.9 °F 13.6 °F 40% 30.35 in 10.0 mi North 8.1 mph - N/A   Clear
4:55 PM 35.6 °F 32.8 °F 15.1 °F 43% 30.36 in 10.0 mi NNE 3.5 mph - N/A   Clear
5:15 PM 35.6 °F - 16.5 °F 46% 30.36 in 10.0 mi Calm Calm - N/A   Clear
5:35 PM 33.1 °F - 15.4 °F 48% 30.37 in 10.0 mi Calm Calm - N/A   Clear
5:55 PM 32.4 °F - 15.4 °F 50% 30.38 in 10.0 mi Calm Calm - N/A   Clear
6:15 PM 30.9 °F - 16.3 °F 55% 30.38 in 10.0 mi Calm Calm - N/A   Clear
6:35 PM 30.9 °F - 18.0 °F 59% 30.39 in 10.0 mi Calm Calm - N/A   Clear
6:55 PM 30.9 °F - 19.6 °F 63% 30.40 in 10.0 mi Calm Calm - N/A   Clear
7:15 PM 30.9 °F - 21.7 °F 69% 30.41 in 10.0 mi Calm Calm - N/A   Clear
7:35 PM 28.4 °F - 20.1 °F 71% 30.42 in 10.0 mi Calm Calm - N/A   Clear
7:55 PM 28.4 °F - 21.6 °F 76% 30.43 in 10.0 mi Calm Calm - N/A   Clear
8:15 PM 29.8 °F - 23.0 °F 76% 30.43 in 10.0 mi Calm Calm - N/A   Clear
8:35 PM 27.1 °F - 20.5 °F 76% 30.44 in 10.0 mi Calm Calm - N/A   Clear
8:55 PM 28.2 °F - 22.5 °F 79% 30.45 in 10.0 mi Calm Calm - N/A   Clear
9:15 PM 28.2 °F - 21.9 °F 77% 30.46 in 10.0 mi Calm Calm - N/A   Clear
9:35 PM 26.2 °F - 19.6 °F 76% 30.46 in 10.0 mi Calm Calm - N/A   Clear
9:55 PM 25.7 °F - 20.7 °F 81% 30.47 in 10.0 mi Calm Calm - N/A   Clear
10:15 PM 25.7 °F - 21.2 °F 83% 30.47 in 10.0 mi Calm Calm - N/A   Clear
10:35 PM 25.2 °F - 20.7 °F 83% 30.48 in 10.0 mi Calm Calm - N/A   Clear
10:55 PM 25.7 °F - 21.9 °F 86% 30.48 in 10.0 mi Calm Calm - N/A   Clear